Patterson, LA

9:01 PM CST on December 13, 2019 (GMT -0600)
Williams Memorial

Weather History for KPTN - October, 2019

Change the Weather History Date:

Wednesday, October 23, 2019

  Actual Average Record
Temperature  
Mean Temperature 62 °F -  
Max Temperature 75 °F 76 °F 87 °F (2003)
Min Temperature 50 °F 57 °F 41 °F (1996)
Degree Days  
Heating Degree Days 2    
Growing Degree Days 12 (Base 50)    
Moisture  
Dew Point 50 °F    
Average Humidity 81    
Maximum Humidity 100    
Minimum Humidity 33    
Precipitation  
Precipitation 0.00 in - - ()
Sea Level Pressure  
Sea Level Pressure 30.15 in    
Wind  
Wind Speed 2 mph (East)    
Max Wind Speed 12 mph    
Max Gust Speed 17 mph    
Visibility 7 miles    
Events      
Averages and records for this station are not official NWS values.
T = Trace of Precipitation, MM = Missing Value Source: NWS Daily Summary

Daily Weather History Graph

Daily Weather History Graph

Search for Another Location

Airport or City:

Astronomy

Oct. 23, 2019 Rise Set
Actual Time 7:12 AM CDT 6:26 PM CDT
Civil Twilight 6:47 AM CDT 6:51 PM CDT
Nautical Twilight 6:19 AM CDT 7:18 PM CDT
Astronomical Twilight 5:52 AM CDT 7:46 PM CDT
Moon 2:03 AM CDT (10/23) 3:48 PM CDT (10/23)
Length of Visible Light 12h 03m
Length of Day
11h 14m
Waning Crescent, 26% of the Moon is Illuminated
Oct 23
Waning Crescent
Oct 27
New
Nov 4
First Quarter
Nov 12
Full
Nov 19
Last Quarter

Hourly Weather History & Observations

Time (CDT) Temp. Dew Point Humidity Pressure Visibility Wind Dir Wind Speed Gust Speed Precip Events Conditions
12:56 AM 53.1 °F 53.1 °F 100% 30.17 in 10.0 mi Calm Calm - N/A   Clear
1:56 AM 52.0 °F 52.0 °F 100% 30.17 in 10.0 mi Calm Calm - N/A   Clear
2:05 AM 51.8 °F 51.8 °F 100% 30.16 in 1.8 mi Calm Calm - N/A   Clear
2:09 AM 51.8 °F 51.8 °F 100% 30.16 in 1.0 mi Calm Calm - N/A   Mist
2:15 AM 51.8 °F 51.8 °F 100% 30.16 in 2.0 mi Calm Calm - N/A   Partly Cloudy
2:28 AM 51.8 °F 51.8 °F 100% 30.15 in 9.0 mi Calm Calm - N/A   Clear
2:56 AM 51.1 °F 51.1 °F 100% 30.16 in 3.0 mi Calm Calm - N/A   Clear
3:02 AM 51.8 °F 51.8 °F 100% 30.15 in 1.2 mi Calm Calm - N/A   Partly Cloudy
3:05 AM 51.8 °F 51.8 °F 100% 30.15 in 0.8 mi Calm Calm - N/A   Mist
3:13 AM 51.8 °F 51.8 °F 100% 30.15 in 1.2 mi Calm Calm - N/A   Scattered Clouds
3:18 AM 51.8 °F 51.8 °F 100% 30.15 in 3.0 mi Calm Calm - N/A   Partly Cloudy
3:29 AM 51.8 °F 51.8 °F 100% 30.15 in 1.5 mi Calm Calm - N/A   Partly Cloudy
3:39 AM 51.8 °F 51.8 °F 100% 30.15 in 3.0 mi Calm Calm - N/A   Clear
3:44 AM 51.8 °F 51.8 °F 100% 30.15 in 1.8 mi Calm Calm - N/A   Clear
3:56 AM 51.1 °F 51.1 °F 100% 30.15 in 1.2 mi Calm Calm - N/A   Partly Cloudy
4:15 AM 51.8 °F 51.8 °F 100% 30.15 in 1.2 mi Calm Calm - N/A   Partly Cloudy
4:36 AM 50.0 °F 50.0 °F 100% 30.15 in 3.0 mi ENE 3.5 mph - N/A   Partly Cloudy
5:56 AM 51.1 °F 51.1 °F 100% 30.16 in 10.0 mi NE 3.5 mph - N/A   Clear
6:56 AM 52.0 °F 52.0 °F 100% 30.17 in 10.0 mi NE 3.5 mph - N/A   Clear
7:56 AM 53.1 °F 52.0 °F 96% 30.18 in 10.0 mi ENE 4.6 mph - N/A   Clear
8:56 AM 62.1 °F 54.0 °F 75% 30.20 in 10.0 mi East 4.6 mph - N/A   Clear
9:56 AM 66.9 °F 48.0 °F 51% 30.20 in 10.0 mi East 11.5 mph - N/A   Clear
10:56 AM 69.1 °F 45.0 °F 42% 30.20 in 10.0 mi East 10.4 mph - N/A   Clear
11:56 AM 71.1 °F 44.1 °F 38% 30.19 in 10.0 mi East 10.4 mph - N/A   Clear
12:56 PM 73.0 °F 43.0 °F 34% 30.17 in 10.0 mi East 9.2 mph 17.3 mph N/A   Clear
1:56 PM 73.0 °F 45.0 °F 37% 30.14 in 10.0 mi ENE 8.1 mph - N/A   Clear
2:56 PM 75.0 °F 44.1 °F 33% 30.12 in 10.0 mi ENE 11.5 mph - N/A   Clear
3:56 PM 73.9 °F 48.0 °F 40% 30.11 in 10.0 mi East 9.2 mph - N/A   Clear
4:56 PM 73.0 °F 46.0 °F 38% 30.10 in 10.0 mi East 6.9 mph - N/A   Clear
5:56 PM 70.0 °F 48.9 °F 47% 30.10 in 10.0 mi ESE 5.8 mph - N/A   Clear
6:56 PM 63.0 °F 52.0 °F 67% 30.12 in 10.0 mi SE 5.8 mph - N/A   Clear
7:56 PM 61.0 °F 52.0 °F 72% 30.13 in 10.0 mi ESE 4.6 mph - N/A   Clear
8:56 PM 59.0 °F 53.1 °F 81% 30.13 in 10.0 mi East 5.8 mph - N/A   Clear
9:56 PM 59.0 °F 52.0 °F 78% 30.14 in 10.0 mi ESE 3.5 mph - N/A   Clear
10:56 PM 57.0 °F 52.0 °F 83% 30.13 in 10.0 mi East 3.5 mph - N/A   Clear
11:56 PM 55.9 °F 53.1 °F 90% 30.12 in 10.0 mi East 3.5 mph - N/A   Clear